,,,PA_Meas_PMT16A,,PR_Meas_QMR101_102,,RH_Meas_QMH101,,SR_Meas_QMS101,,TA_Meas_QMH101,,GenWind,,GenWind,
date,time,status,PA,status,PR,status,RH,status,SR,status,TA,status,DirAvg,status,SpdAvg,
2011-03-18, 00:00:04,VALID,1005.2,VALID,0,INVALID,163.685,VALID,0,VALID,24.93,VALID,356,VALID,0.465234,
2011-03-18, 00:01:04,VALID,1005.18,VALID,0,INVALID,163.662,VALID,0,VALID,24.9106,VALID,337,VALID,0.442969,
2011-03-18, 00:02:04,VALID,1005.16,VALID,0,INVALID,163.632,VALID,0,VALID,24.9106,VALID,337,VALID,0.359375,
2011-03-18, 00:03:04,VALID,1005.12,VALID,0,INVALID,163.655,VALID,0,VALID,24.8911,VALID,337,VALID,0.420703,
2011-03-18, 00:04:04,VALID,1005.12,VALID,0,INVALID,163.655,VALID,0,VALID,24.8716,VALID,337,VALID,0.452734,
2011-03-18, 00:05:04,VALID,1005.1,VALID,0,INVALID,163.678,VALID,0,VALID,24.893,VALID,337,VALID,0.490234,
2011-03-18, 00:06:04,VALID,1005.08,VALID,0,INVALID,163.67,VALID,0,VALID,24.8132,VALID,346,VALID,0.633203,
2011-03-18, 00:07:04,VALID,1005.06,VALID,0,INVALID,163.67,VALID,0,VALID,24.7919,VALID,349,VALID,0.380469,
2011-03-18, 00:08:04,VALID,1005.04,VALID,0,INVALID,163.655,VALID,0,VALID,24.8151,VALID,350,VALID,0.526563,
2011-03-18, 00:09:04,VALID,1005.05,VALID,0,INVALID,163.662,VALID,0,VALID,24.7761,VALID,350,VALID,0.495703,
2011-03-18, 00:10:04,VALID,1005.02,VALID,0,INVALID,163.662,VALID,0,VALID,24.7353,VALID,349,VALID,0.600781,
2011-03-18, 00:11:04,VALID,1005.06,VALID,0,INVALID,163.693,VALID,0,VALID,24.7159,VALID,349,VALID,0.419922,
2011-03-18, 00:12:04,VALID,1005.02,VALID,0,INVALID,163.685,VALID,0,VALID,24.7177,VALID,349,VALID,0.294531,
2011-03-18, 00:13:04,VALID,1005.02,VALID,0,INVALID,163.662,VALID,0,VALID,24.6769,VALID,349,VALID,0.425,
2011-03-18, 00:14:04,VALID,1005.02,VALID,0,INVALID,163.678,VALID,0,VALID,24.6964,VALID,349,VALID,0.280078,
2011-03-18, 00:15:04,VALID,1004.99,VALID,0,INVALID,163.67,VALID,0,VALID,24.7159,VALID,349,VALID,0,
2011-03-18, 00:16:04,VALID,1004.99,VALID,0,INVALID,163.647,VALID,0,VALID,24.7548,VALID,321,VALID,0.387109,
2011-03-18, 00:17:04,VALID,1005.03,VALID,0,INVALID,163.655,VALID,0,VALID,24.7937,VALID,212,VALID,1.01016,
2011-03-18, 00:18:04,VALID,1004.99,VALID,0,INVALID,163.67,VALID,0,VALID,24.8716,VALID,196,VALID,0.996875,
2011-03-18, 00:19:04,VALID,1005.02,VALID,0,INVALID,163.632,VALID,0,VALID,24.8911,VALID,198,VALID,0.456641,
2011-03-18, 00:20:04,VALID,1004.98,VALID,0,INVALID,163.647,VALID,0,VALID,24.9319,VALID,226,VALID,0.581641,
2011-03-18, 00:21:04,VALID,1005.01,VALID,0,INVALID,163.655,VALID,0,VALID,24.9495,VALID,234,VALID,0.458594,
2011-03-18, 00:22:04,VALID,1004.96,VALID,0,INVALID,163.655,VALID,0,VALID,24.9476,VALID,226,VALID,0.45,
2011-03-18, 00:23:04,VALID,1004.94,VALID,0,INVALID,163.662,VALID,0,VALID,25.0293,VALID,226,VALID,0.292578,
2011-03-18, 00:24:04,VALID,1004.93,VALID,0,INVALID,163.655,VALID,0,VALID,25.0469,VALID,226,VALID,0.442578,
2011-03-18, 00:25:04,VALID,1004.88,VALID,0,INVALID,163.647,VALID,0,VALID,25.0858,VALID,226,VALID,0.0277344,
2011-03-18, 00:26:04,VALID,1004.87,VALID,0,INVALID,163.639,VALID,0,VALID,25.0877,VALID,226,VALID,0.34375,
2011-03-18, 00:27:04,VALID,1004.82,VALID,0,INVALID,163.655,VALID,0,VALID,25.0858,VALID,226,VALID,0.175391,
2011-03-18, 00:28:04,VALID,1004.84,VALID,0,INVALID,163.662,VALID,0,VALID,25.1053,VALID,226,VALID,0,
2011-03-18, 00:29:04,VALID,1004.78,VALID,0,INVALID,163.639,VALID,0,VALID,25.0839,VALID,297,VALID,0.525781,
2011-03-18, 00:30:04,VALID,1004.75,VALID,0,INVALID,163.655,VALID,0,VALID,25.0858,VALID,333,VALID,0.478516,
2011-03-18, 00:31:04,VALID,1004.76,VALID,0,INVALID,163.662,VALID,0,VALID,25.0663,VALID,353,VALID,0.618359,
2011-03-18, 00:32:04,VALID,1004.74,VALID,0,INVALID,163.662,VALID,0,VALID,25.0255,VALID,360,VALID,0.675,
2011-03-18, 00:33:04,VALID,1004.74,VALID,0,INVALID,163.647,VALID,0,VALID,24.9847,VALID,1,VALID,0.452344,
2011-03-18, 00:34:04,VALID,1004.75,VALID,0,INVALID,163.662,VALID,0,VALID,24.9866,VALID,1,VALID,0.575391,
2011-03-18, 00:35:04,VALID,1004.77,VALID,0,INVALID,163.655,VALID,0,VALID,24.9885,VALID,360,VALID,0.281641,
2011-03-18, 00:36:04,VALID,1004.78,VALID,0,INVALID,163.67,VALID,0,VALID,24.969,VALID,1,VALID,0.137891,
2011-03-18, 00:37:04,VALID,1004.77,VALID,0,INVALID,163.662,VALID,0,VALID,24.9282,VALID,1,VALID,0,
2011-03-18, 00:38:04,VALID,1004.76,VALID,0,INVALID,163.67,VALID,0,VALID,24.9087,VALID,1,VALID,0,
2011-03-18, 00:39:04,VALID,1004.73,VALID,0,INVALID,163.655,VALID,0,VALID,24.8892,VALID,1,VALID,0,
2011-03-18, 00:40:04,VALID,1004.71,VALID,0,INVALID,163.685,VALID,0,VALID,24.8892,VALID,1,VALID,0,
2011-03-18, 00:41:04,VALID,1004.68,VALID,0,INVALID,163.662,VALID,0,VALID,24.8697,VALID,1,VALID,0,
2011-03-18, 00:42:04,VALID,1004.67,VALID,0,INVALID,163.678,VALID,0,VALID,24.8697,VALID,1,VALID,0,
2011-03-18, 00:43:04,VALID,1004.63,VALID,0,INVALID,163.67,VALID,0,VALID,24.8697,VALID,1,VALID,0,
2011-03-18, 00:44:04,VALID,1004.62,VALID,0,INVALID,163.678,VALID,0,VALID,24.9125,VALID,1,VALID,0,
2011-03-18, 00:45:04,VALID,1004.6,VALID,0,INVALID,163.678,VALID,0,VALID,24.8679,VALID,1,VALID,0,
2011-03-18, 00:46:04,VALID,1004.58,VALID,0,INVALID,163.655,VALID,0,VALID,24.8697,VALID,1,VALID,0,
2011-03-18, 00:47:04,VALID,1004.6,VALID,0,INVALID,163.678,VALID,0,VALID,24.8503,VALID,1,VALID,0,
2011-03-18, 00:48:04,VALID,1004.57,VALID,0,INVALID,163.685,VALID,0,VALID,24.8113,VALID,360,VALID,0,
2011-03-18, 00:49:04,VALID,1004.54,VALID,0,INVALID,163.685,VALID,0,VALID,24.7724,VALID,1,VALID,0,
2011-03-18, 00:50:04,VALID,1004.54,VALID,0,INVALID,163.678,VALID,0,VALID,24.7724,VALID,1,VALID,0.292188,
2011-03-18, 00:51:04,VALID,1004.52,VALID,0,INVALID,163.685,VALID,0,VALID,24.7548,VALID,1,VALID,0.485938,
2011-03-18, 00:52:04,VALID,1004.53,VALID,0,INVALID,163.662,VALID,0,VALID,24.714,VALID,1,VALID,0.632813,
2011-03-18, 00:53:04,VALID,1004.51,VALID,0,INVALID,163.708,VALID,0,VALID,24.6574,VALID,2,VALID,0.688281,
2011-03-18, 00:54:04,VALID,1004.51,VALID,0,INVALID,163.701,VALID,0,VALID,24.6185,VALID,2,VALID,0.647266,
2011-03-18, 00:55:04,VALID,1004.49,VALID,0,INVALID,163.693,VALID,0,VALID,24.5582,VALID,355,VALID,0.667188,
2011-03-18, 00:56:04,VALID,1004.46,VALID,0,INVALID,163.708,VALID,0,VALID,24.5601,VALID,355,VALID,0.651953,
2011-03-18, 00:57:04,VALID,1004.45,VALID,0,INVALID,163.708,VALID,0,VALID,24.5193,VALID,355,VALID,0.576172,
2011-03-18, 00:58:04,VALID,1004.45,VALID,0,INVALID,163.716,VALID,0,VALID,24.4785,VALID,355,VALID,0.503125,
2011-03-18, 00:59:04,VALID,1004.4,VALID,0,INVALID,163.701,VALID,0,VALID,24.4804,VALID,355,VALID,0.202734,
2011-03-18, 01:00:04,VALID,1004.36,VALID,0,INVALID,163.685,VALID,0,VALID,24.4609,VALID,355,VALID,0.0699219,
2011-03-18, 01:01:04,VALID,1004.36,VALID,0,INVALID,163.678,VALID,0,VALID,24.4628,VALID,355,VALID,0,
2011-03-18, 01:02:04,VALID,1004.36,VALID,0,INVALID,163.708,VALID,0,VALID,24.4414,VALID,355,VALID,0,
2011-03-18, 01:03:04,VALID,1004.36,VALID,0,INVALID,163.693,VALID,0,VALID,24.4628,VALID,355,VALID,0.317187,
2011-03-18, 01:04:04,VALID,1004.36,VALID,0,INVALID,163.685,VALID,0,VALID,24.4628,VALID,355,VALID,0.169141,
2011-03-18, 01:05:04,VALID,1004.37,VALID,0,INVALID,163.662,VALID,0,VALID,24.4414,VALID,355,VALID,0.16875,
2011-03-18, 01:06:04,VALID,1004.34,VALID,0,INVALID,163.708,VALID,0,VALID,24.422,VALID,355,VALID,0.0902344,
2011-03-18, 01:07:04,VALID,1004.35,VALID,0,INVALID,163.701,VALID,0,VALID,24.4433,VALID,355,VALID,0.00273437,
2011-03-18, 01:08:04,VALID,1004.34,VALID,0,INVALID,163.708,VALID,0,VALID,24.4433,VALID,355,VALID,0.134766,
2011-03-18, 01:09:04,VALID,1004.29,VALID,0,INVALID,163.693,VALID,0,VALID,24.4025,VALID,355,VALID,0.128516,
2011-03-18, 01:10:04,VALID,1004.29,VALID,0,INVALID,163.708,VALID,0,VALID,24.4025,VALID,355,VALID,0.304297,
2011-03-18, 01:11:04,VALID,1004.25,VALID,0,INVALID,163.693,VALID,0,VALID,24.4025,VALID,355,VALID,0,
2011-03-18, 01:12:04,VALID,1004.29,VALID,0,INVALID,163.731,VALID,0.100563,VALID,24.4414,VALID,355,VALID,0,
2011-03-18, 01:13:04,VALID,1004.27,VALID,0,INVALID,163.685,VALID,0,VALID,24.4414,VALID,355,VALID,0.00390625,
2011-03-18, 01:14:04,VALID,1004.26,VALID,0,INVALID,163.693,VALID,0,VALID,24.4414,VALID,350,VALID,0.11875,
2011-03-18, 01:15:04,VALID,1004.27,VALID,0,INVALID,163.708,VALID,0,VALID,24.4609,VALID,353,VALID,0.46875,
2011-03-18, 01:16:04,VALID,1004.27,VALID,0,INVALID,163.708,VALID,0,VALID,24.4822,VALID,344,VALID,0.367578,
2011-03-18, 01:17:04,VALID,1004.31,VALID,0,INVALID,163.701,VALID,0,VALID,24.4822,VALID,351,VALID,0.688672,
2011-03-18, 01:18:04,VALID,1004.29,VALID,0,INVALID,163.701,VALID,0,VALID,24.4804,VALID,344,VALID,0.361328,
2011-03-18, 01:19:04,VALID,1004.25,VALID,0,INVALID,163.693,VALID,0,VALID,24.4785,VALID,344,VALID,0.414453,
2011-03-18, 01:20:04,VALID,1004.3,VALID,0,INVALID,163.693,VALID,0,VALID,24.4998,VALID,344,VALID,0.307422,
2011-03-18, 01:21:04,VALID,1004.28,VALID,0,INVALID,163.693,VALID,0,VALID,24.5212,VALID,22,VALID,0.472656,
2011-03-18, 01:22:04,VALID,1004.3,VALID,0,INVALID,163.662,VALID,0,VALID,24.4804,VALID,22,VALID,0.382813,
2011-03-18, 01:23:04,VALID,1004.3,VALID,0,INVALID,163.708,VALID,0,VALID,24.4609,VALID,22,VALID,0.352734,
2011-03-18, 01:24:04,VALID,1004.28,VALID,0,INVALID,163.701,VALID,0,VALID,24.4414,VALID,22,VALID,0.309375,
2011-03-18, 01:25:04,VALID,1004.27,VALID,0,INVALID,163.693,VALID,0,VALID,24.4433,VALID,22,VALID,0.0375,
2011-03-18, 01:26:04,VALID,1004.28,VALID,0,INVALID,163.716,VALID,0,VALID,24.4238,VALID,22,VALID,0,
2011-03-18, 01:27:04,VALID,1004.31,VALID,0,INVALID,163.678,VALID,0,VALID,24.4025,VALID,22,VALID,0,
2011-03-18, 01:28:04,VALID,1004.27,VALID,0,INVALID,163.716,VALID,0,VALID,24.4025,VALID,22,VALID,0,
2011-03-18, 01:29:04,VALID,1004.31,VALID,0,INVALID,163.716,VALID,0,VALID,24.4043,VALID,22,VALID,0,
2011-03-18, 01:30:04,VALID,1004.32,VALID,0,INVALID,163.693,VALID,0,VALID,24.4043,VALID,22,VALID,0,
2011-03-18, 01:31:04,VALID,1004.3,VALID,0,INVALID,163.723,VALID,0,VALID,24.383,VALID,22,VALID,0,
2011-03-18, 01:32:04,VALID,1004.3,VALID,0,INVALID,163.693,VALID,0,VALID,24.4238,VALID,22,VALID,0,
2011-03-18, 01:33:04,VALID,1004.29,VALID,0,INVALID,163.701,VALID,0,VALID,24.4025,VALID,22,VALID,0,
2011-03-18, 01:34:04,VALID,1004.28,VALID,0,INVALID,163.693,VALID,0,VALID,24.4025,VALID,22,VALID,0,
2011-03-18, 01:35:04,VALID,1004.25,VALID,0,INVALID,163.701,VALID,0,VALID,24.422,VALID,22,VALID,0,
2011-03-18, 01:36:04,VALID,1004.25,VALID,0,INVALID,163.693,VALID,0,VALID,24.4025,VALID,22,VALID,0,
2011-03-18, 01:37:04,VALID,1004.23,VALID,0,INVALID,163.693,VALID,0,VALID,24.4025,VALID,22,VALID,0,
2011-03-18, 01:38:04,VALID,1004.23,VALID,0,INVALID,163.67,VALID,0,VALID,24.4025,VALID,22,VALID,0,
2011-03-18, 01:39:04,VALID,1004.22,VALID,0,INVALID,163.731,VALID,0,VALID,24.422,VALID,22,VALID,0,
2011-03-18, 01:40:04,VALID,1004.19,VALID,0,INVALID,163.708,VALID,0,VALID,24.4025,VALID,22,VALID,0,
2011-03-18, 01:41:04,VALID,1004.16,VALID,0,INVALID,163.685,VALID,0,VALID,24.422,VALID,22,VALID,0,
2011-03-18, 01:42:04,VALID,1004.15,VALID,0,INVALID,163.716,VALID,0,VALID,24.4414,VALID,22,VALID,0,
2011-03-18, 01:43:04,VALID,1004.13,VALID,0,INVALID,163.685,VALID,0,VALID,24.422,VALID,22,VALID,0,
2011-03-18, 01:44:04,VALID,1004.07,VALID,0,INVALID,163.701,VALID,0,VALID,24.4822,VALID,22,VALID,0,
2011-03-18, 01:45:04,VALID,1004.1,VALID,0,INVALID,163.701,VALID,0,VALID,24.4414,VALID,39,VALID,0,
2011-03-18, 01:46:04,VALID,1004.05,VALID,0,INVALID,163.693,VALID,0,VALID,24.4822,VALID,135,VALID,0.617188,
2011-03-18, 01:47:04,VALID,1004.04,VALID,0,INVALID,163.716,VALID,0,VALID,24.4822,VALID,43,VALID,0.409766,
2011-03-18, 01:48:04,VALID,1004.04,VALID,0,INVALID,163.708,VALID,0,VALID,24.4804,VALID,44,VALID,0.374609,
2011-03-18, 01:49:04,VALID,1004.02,VALID,0,INVALID,163.685,VALID,0,VALID,24.4998,VALID,56,VALID,0.456641,
2011-03-18, 01:50:04,VALID,1004.02,VALID,0,INVALID,163.678,VALID,0,VALID,24.5193,VALID,66,VALID,0.225,
2011-03-18, 01:51:04,VALID,1003.99,VALID,0,INVALID,163.685,VALID,0,VALID,24.5193,VALID,65,VALID,0.491797,
2011-03-18, 01:52:04,VALID,1003.97,VALID,0,INVALID,163.701,VALID,0,VALID,24.5193,VALID,64,VALID,0.320313,
2011-03-18, 01:53:04,VALID,1003.95,VALID,0,INVALID,163.678,VALID,0,VALID,24.5406,VALID,64,VALID,0.223828,
2011-03-18, 01:54:04,VALID,1003.93,VALID,0,INVALID,163.678,VALID,0,VALID,24.5193,VALID,133,VALID,0.710156,
2011-03-18, 01:55:04,VALID,1003.91,VALID,0,INVALID,163.701,VALID,0,VALID,24.5388,VALID,135,VALID,0.732031,
2011-03-18, 01:56:04,VALID,1003.92,VALID,0,INVALID,163.685,VALID,0,VALID,24.5388,VALID,142,VALID,0.632031,
2011-03-18, 01:57:04,VALID,1003.87,VALID,0,INVALID,163.67,VALID,0,VALID,24.5193,VALID,142,VALID,0.407422,
2011-03-18, 01:58:04,VALID,1003.86,VALID,0,INVALID,163.693,VALID,0,VALID,24.5796,VALID,128,VALID,0,
2011-03-18, 01:59:04,VALID,1003.9,VALID,0,INVALID,163.678,VALID,0,VALID,24.599,VALID,128,VALID,0.541797,
2011-03-18, 02:00:04,VALID,1003.84,VALID,0,INVALID,163.685,VALID,0,VALID,24.599,VALID,128,VALID,0.183594,
2011-03-18, 02:01:04,VALID,1003.86,VALID,0,INVALID,163.701,VALID,0,VALID,24.5777,VALID,128,VALID,0,
2011-03-18, 02:02:04,VALID,1003.83,VALID,0,INVALID,163.693,VALID,0,VALID,24.5758,VALID,178,VALID,0.628125,
2011-03-18, 02:03:04,VALID,1003.82,VALID,0,INVALID,163.678,VALID,0,VALID,24.675,VALID,137,VALID,1.11719,
2011-03-18, 02:04:04,VALID,1003.82,VALID,0,INVALID,163.639,VALID,0,VALID,24.7353,VALID,91,VALID,0.651953,
2011-03-18, 02:05:04,VALID,1003.8,VALID,0,INVALID,163.67,VALID,0,VALID,24.7353,VALID,92,VALID,0.698828,
2011-03-18, 02:06:04,VALID,1003.78,VALID,0,INVALID,163.678,VALID,0,VALID,24.7335,VALID,120,VALID,0.626953,
2011-03-18, 02:07:04,VALID,1003.76,VALID,0,INVALID,163.67,VALID,0,VALID,24.7335,VALID,120,VALID,0.377344,
2011-03-18, 02:08:04,VALID,1003.74,VALID,0,INVALID,163.67,VALID,0,VALID,24.7548,VALID,120,VALID,0.408203,
2011-03-18, 02:09:04,VALID,1003.69,VALID,0,INVALID,163.678,VALID,0,VALID,24.7335,VALID,120,VALID,0.250391,
2011-03-18, 02:10:04,VALID,1003.68,VALID,0,INVALID,163.67,VALID,0,VALID,24.7548,VALID,120,VALID,0.327344,
2011-03-18, 02:11:04,VALID,1003.65,VALID,0,INVALID,163.693,VALID,0,VALID,24.714,VALID,120,VALID,0.310156,
2011-03-18, 02:12:04,VALID,1003.64,VALID,0,INVALID,163.693,VALID,0,VALID,24.7159,VALID,119,VALID,0.267578,
2011-03-18, 02:13:04,VALID,1003.61,VALID,0,INVALID,163.693,VALID,0,VALID,24.7159,VALID,68,VALID,0.183984,
2011-03-18, 02:14:04,VALID,1003.58,VALID,0,INVALID,163.662,VALID,0,VALID,24.675,VALID,68,VALID,0.364844,
2011-03-18, 02:15:04,VALID,1003.56,VALID,0,INVALID,163.678,VALID,0,VALID,24.6556,VALID,68,VALID,0.495313,
2011-03-18, 02:16:04,VALID,1003.53,VALID,0,INVALID,163.708,VALID,0,VALID,24.6788,VALID,68,VALID,0.31875,
2011-03-18, 02:17:04,VALID,1003.49,VALID,0,INVALID,163.685,VALID,0,VALID,24.6361,VALID,68,VALID,0.123438,
2011-03-18, 02:18:04,VALID,1003.47,VALID,0,INVALID,163.678,VALID,0,VALID,24.638,VALID,68,VALID,0.287891,
2011-03-18, 02:19:04,VALID,1003.47,VALID,0,INVALID,163.655,VALID,0,VALID,24.5972,VALID,68,VALID,0,
2011-03-18, 02:20:04,VALID,1003.4,VALID,0,INVALID,163.693,VALID,0,VALID,24.6166,VALID,68,VALID,0.00351562,
2011-03-18, 02:21:04,VALID,1003.39,VALID,0,INVALID,163.678,VALID,0,VALID,24.6185,VALID,68,VALID,0.250781,
2011-03-18, 02:22:04,VALID,1003.38,VALID,0,INVALID,163.678,VALID,0,VALID,24.599,VALID,68,VALID,0.219922,
2011-03-18, 02:23:04,VALID,1003.37,VALID,0,INVALID,163.701,VALID,0,VALID,24.5972,VALID,68,VALID,0.323828,
2011-03-18, 02:24:04,VALID,1003.34,VALID,0,INVALID,163.685,VALID,0,VALID,24.5972,VALID,68,VALID,0.305859,
2011-03-18, 02:25:04,VALID,1003.33,VALID,0,INVALID,163.678,VALID,0,VALID,24.5777,VALID,132,VALID,0.646094,
2011-03-18, 02:26:04,VALID,1003.33,VALID,0,INVALID,163.693,VALID,0,VALID,24.5972,VALID,132,VALID,0.3125,
2011-03-18, 02:27:04,VALID,1003.33,VALID,0,INVALID,163.693,VALID,0,VALID,24.5777,VALID,132,VALID,0.0277344,
2011-03-18, 02:28:04,VALID,1003.32,VALID,0,INVALID,163.701,VALID,0,VALID,24.5796,VALID,132,VALID,0.172266,
2011-03-18, 02:29:04,VALID,1003.32,VALID,0,INVALID,163.685,VALID,0,VALID,24.5601,VALID,76,VALID,0.553906,
2011-03-18, 02:30:04,VALID,1003.35,VALID,0,INVALID,163.701,VALID,0,VALID,24.5388,VALID,76,VALID,0.429688,
2011-03-18, 02:31:04,VALID,1003.33,VALID,0,INVALID,163.701,VALID,0,VALID,24.5193,VALID,76,VALID,0.414453,
2011-03-18, 02:32:04,VALID,1003.32,VALID,0,INVALID,163.678,VALID,0,VALID,24.4998,VALID,76,VALID,0.364062,
2011-03-18, 02:33:04,VALID,1003.33,VALID,0,INVALID,163.701,VALID,0,VALID,24.4998,VALID,76,VALID,0.296875,
2011-03-18, 02:34:04,VALID,1003.34,VALID,0,INVALID,163.708,VALID,0,VALID,24.5017,VALID,76,VALID,0.205469,
2011-03-18, 02:35:04,VALID,1003.37,VALID,0,INVALID,163.685,VALID,0,VALID,24.5017,VALID,76,VALID,0.128516,
2011-03-18, 02:36:04,VALID,1003.39,VALID,0,INVALID,163.678,VALID,0,VALID,24.5017,VALID,76,VALID,0.325391,
2011-03-18, 02:37:04,VALID,1003.36,VALID,0,INVALID,163.708,VALID,0,VALID,24.4804,VALID,76,VALID,0.217578,
2011-03-18, 02:38:04,VALID,1003.37,VALID,0,INVALID,163.723,VALID,0,VALID,24.5017,VALID,76,VALID,0,
2011-03-18, 02:39:04,VALID,1003.35,VALID,0,INVALID,163.701,VALID,0,VALID,24.5017,VALID,76,VALID,0,
2011-03-18, 02:40:04,VALID,1003.32,VALID,0,INVALID,163.678,VALID,0,VALID,24.5017,VALID,76,VALID,0,
2011-03-18, 02:41:04,VALID,1003.34,VALID,0,INVALID,163.701,VALID,0,VALID,24.5406,VALID,76,VALID,0,
2011-03-18, 02:42:04,VALID,1003.32,VALID,0,INVALID,163.678,VALID,0,VALID,24.4998,VALID,76,VALID,0,
2011-03-18, 02:43:04,VALID,1003.31,VALID,0,INVALID,163.693,VALID,0,VALID,24.5212,VALID,76,VALID,0,
2011-03-18, 02:44:04,VALID,1003.28,VALID,0,INVALID,163.716,VALID,0,VALID,24.5193,VALID,76,VALID,0,
2011-03-18, 02:45:04,VALID,1003.29,VALID,0,INVALID,163.693,VALID,0,VALID,24.5193,VALID,76,VALID,0,
2011-03-18, 02:46:04,VALID,1003.28,VALID,0,INVALID,163.678,VALID,0,VALID,24.5193,VALID,76,VALID,0,
2011-03-18, 02:47:04,VALID,1003.25,VALID,0,INVALID,163.685,VALID,0,VALID,24.5193,VALID,76,VALID,0,
2011-03-18, 02:48:04,VALID,1003.23,VALID,0,INVALID,163.678,VALID,0,VALID,24.5193,VALID,76,VALID,0,
2011-03-18, 02:49:04,VALID,1003.21,VALID,0,INVALID,163.708,VALID,0,VALID,24.5406,VALID,76,VALID,0,
2011-03-18, 02:50:04,VALID,1003.21,VALID,0,INVALID,163.685,VALID,0,VALID,24.5193,VALID,76,VALID,0,
2011-03-18, 02:51:04,VALID,1003.23,VALID,0,INVALID,163.701,VALID,0,VALID,24.5388,VALID,76,VALID,0,
2011-03-18, 02:52:04,VALID,1003.2,VALID,0,INVALID,163.693,VALID,0.100563,VALID,24.5388,VALID,76,VALID,0,
2011-03-18, 02:53:04,VALID,1003.2,VALID,0,INVALID,163.67,VALID,0,VALID,24.498,VALID,76,VALID,0,
2011-03-18, 02:54:04,VALID,1003.16,VALID,0,INVALID,163.685,VALID,0,VALID,24.5193,VALID,76,VALID,0,
2011-03-18, 02:55:04,VALID,1003.18,VALID,0,INVALID,163.678,VALID,0,VALID,24.4998,VALID,76,VALID,0,
2011-03-18, 02:56:04,VALID,1003.18,VALID,0,INVALID,163.693,VALID,0,VALID,24.4998,VALID,76,VALID,0,
2011-03-18, 02:57:04,VALID,1003.2,VALID,0,INVALID,163.685,VALID,0,VALID,24.4804,VALID,76,VALID,0,
2011-03-18, 02:58:04,VALID,1003.19,VALID,0,INVALID,163.693,VALID,0,VALID,24.4804,VALID,76,VALID,0,
2011-03-18, 02:59:04,VALID,1003.22,VALID,0,INVALID,163.685,VALID,0,VALID,24.4804,VALID,76,VALID,0,
2011-03-18, 03:00:04,VALID,1003.21,VALID,0,INVALID,163.685,VALID,0,VALID,24.4609,VALID,76,VALID,0,
2011-03-18, 03:01:04,VALID,1003.23,VALID,0,INVALID,163.701,VALID,0,VALID,24.4414,VALID,76,VALID,0,
2011-03-18, 03:02:04,VALID,1003.23,VALID,0,INVALID,163.708,VALID,0,VALID,24.4006,VALID,76,VALID,0,
2011-03-18, 03:03:04,VALID,1003.23,VALID,0,INVALID,163.701,VALID,0,VALID,24.4025,VALID,76,VALID,0.522656,
2011-03-18, 03:04:04,VALID,1003.25,VALID,0,INVALID,163.739,VALID,0,VALID,24.383,VALID,76,VALID,0.493359,
2011-03-18, 03:05:04,VALID,1003.29,VALID,0,INVALID,163.708,VALID,0,VALID,24.3422,VALID,76,VALID,0.538281,
2011-03-18, 03:06:04,VALID,1003.33,VALID,0,INVALID,163.701,VALID,0,VALID,24.3441,VALID,76,VALID,0.402344,
2011-03-18, 03:07:04,VALID,1003.36,VALID,0,INVALID,163.701,VALID,0.100563,VALID,24.3441,VALID,76,VALID,0.308203,
2011-03-18, 03:08:04,VALID,1003.4,VALID,0,INVALID,163.701,VALID,0,VALID,24.3441,VALID,76,VALID,0.324219,
2011-03-18, 03:09:04,VALID,1003.41,VALID,0,INVALID,163.716,VALID,0,VALID,24.3033,VALID,76,VALID,0.266797,
2011-03-18, 03:10:04,VALID,1003.43,VALID,0,INVALID,163.716,VALID,0,VALID,24.3246,VALID,76,VALID,0.416016,
2011-03-18, 03:11:04,VALID,1003.49,VALID,0,INVALID,163.731,VALID,0,VALID,24.2839,VALID,60,VALID,0.511328,
2011-03-18, 03:12:04,VALID,1003.48,VALID,0,INVALID,163.731,VALID,0.100563,VALID,24.3246,VALID,22,VALID,0.519531,
2011-03-18, 03:13:04,VALID,1003.48,VALID,0,INVALID,163.693,VALID,0,VALID,24.2857,VALID,3,VALID,0.730859,
2011-03-18, 03:14:04,VALID,1003.5,VALID,0,INVALID,163.708,VALID,0,VALID,24.2857,VALID,3,VALID,0.619141,
2011-03-18, 03:15:04,VALID,1003.54,VALID,0,INVALID,163.723,VALID,0,VALID,24.2662,VALID,3,VALID,0.554688,
2011-03-18, 03:16:04,VALID,1003.56,VALID,0,INVALID,163.701,VALID,0,VALID,24.2662,VALID,2,VALID,0.814844,
2011-03-18, 03:17:04,VALID,1003.57,VALID,0,INVALID,163.723,VALID,0,VALID,24.2662,VALID,2,VALID,0.383594,
2011-03-18, 03:18:04,VALID,1003.56,VALID,0,INVALID,163.693,VALID,0,VALID,24.2662,VALID,2,VALID,0.559766,
2011-03-18, 03:19:04,VALID,1003.58,VALID,0,INVALID,163.716,VALID,0,VALID,24.2875,VALID,2,VALID,0.573828,
2011-03-18, 03:20:04,VALID,1003.6,VALID,0,INVALID,163.723,VALID,0,VALID,24.2857,VALID,2,VALID,0.526172,
2011-03-18, 03:21:04,VALID,1003.62,VALID,0,INVALID,163.716,VALID,0,VALID,24.2875,VALID,2,VALID,0.301562,
2011-03-18, 03:22:04,VALID,1003.63,VALID,0,INVALID,163.731,VALID,0,VALID,24.2875,VALID,2,VALID,0.401563,
2011-03-18, 03:23:04,VALID,1003.65,VALID,0,INVALID,163.701,VALID,0,VALID,24.307,VALID,2,VALID,0.0875,
2011-03-18, 03:24:04,VALID,1003.67,VALID,0,INVALID,163.685,VALID,0,VALID,24.3052,VALID,2,VALID,0,
2011-03-18, 03:25:04,VALID,1003.65,VALID,0,INVALID,163.685,VALID,0,VALID,24.3052,VALID,2,VALID,0.146094,
2011-03-18, 03:26:04,VALID,1003.66,VALID,0,INVALID,163.716,VALID,0,VALID,24.3052,VALID,2,VALID,0.00585938,
2011-03-18, 03:27:04,VALID,1003.65,VALID,0,INVALID,163.708,VALID,0,VALID,24.3265,VALID,2,VALID,0,
2011-03-18, 03:28:04,VALID,1003.64,VALID,0,INVALID,163.716,VALID,0,VALID,24.3052,VALID,2,VALID,0,
2011-03-18, 03:29:04,VALID,1003.67,VALID,0,INVALID,163.708,VALID,0,VALID,24.3246,VALID,2,VALID,0,
2011-03-18, 03:30:04,VALID,1003.64,VALID,0,INVALID,163.716,VALID,0,VALID,24.307,VALID,2,VALID,0,
2011-03-18, 03:31:04,VALID,1003.63,VALID,0,INVALID,163.723,VALID,0,VALID,24.3246,VALID,2,VALID,0,
2011-03-18, 03:32:04,VALID,1003.64,VALID,0,INVALID,163.708,VALID,0,VALID,24.3246,VALID,2,VALID,0.186328,
2011-03-18, 03:33:04,VALID,1003.63,VALID,0,INVALID,163.708,VALID,0,VALID,24.3654,VALID,2,VALID,0.2125,
2011-03-18, 03:34:04,VALID,1003.64,VALID,0,INVALID,163.678,VALID,0,VALID,24.3636,VALID,2,VALID,0.301172,
2011-03-18, 03:35:04,VALID,1003.65,VALID,0,INVALID,163.723,VALID,0,VALID,24.3636,VALID,2,VALID,0.3375,
2011-03-18, 03:36:04,VALID,1003.66,VALID,0,INVALID,163.716,VALID,0,VALID,24.3654,VALID,2,VALID,0.432813,
2011-03-18, 03:37:04,VALID,1003.63,VALID,0,INVALID,163.693,VALID,0,VALID,24.3246,VALID,2,VALID,0.504297,
2011-03-18, 03:38:04,VALID,1003.65,VALID,0,INVALID,163.693,VALID,0,VALID,24.3246,VALID,2,VALID,0.422656,
2011-03-18, 03:39:04,VALID,1003.62,VALID,0,INVALID,163.731,VALID,0,VALID,24.3052,VALID,2,VALID,0.307031,
2011-03-18, 03:40:04,VALID,1003.62,VALID,0,INVALID,163.693,VALID,0,VALID,24.3246,VALID,2,VALID,0.276953,
2011-03-18, 03:41:04,VALID,1003.6,VALID,0,INVALID,163.701,VALID,0,VALID,24.3478,VALID,2,VALID,0.173828,
2011-03-18, 03:42:04,VALID,1003.6,VALID,0,INVALID,163.716,VALID,0,VALID,24.3246,VALID,2,VALID,0,
2011-03-18, 03:43:04,VALID,1003.57,VALID,0,INVALID,163.685,VALID,0,VALID,24.3246,VALID,2,VALID,0,
2011-03-18, 03:44:04,VALID,1003.55,VALID,0,INVALID,163.739,VALID,0,VALID,24.3265,VALID,2,VALID,0,
2011-03-18, 03:45:04,VALID,1003.53,VALID,0,INVALID,163.701,VALID,0,VALID,24.3052,VALID,2,VALID,0,
2011-03-18, 03:46:04,VALID,1003.5,VALID,0,INVALID,163.716,VALID,0,VALID,24.3052,VALID,2,VALID,0,